Location: Altenhof
(50.2418°N, 10.8789°E)
Time: 04:46:29
(UTC+00:00)

BREEZE-M DEB (TANK) - Pass Details

Date: 18 February 2020
Orbit: 324 x 11711 km, 49.7° (Epoch: 28 March)

Event Time Altitude Azimuth Distance (km) Brightness Sun altitude
Exits shadow 03:57:43 52° 195° (SSW) 876 4.1 -23.8°
Maximum altitude 03:58:27 60° 152° (SSE) 889 4.3 -23.7°
Drops below altitude 10° 04:07:33 10° 76° (ENE) 4,535 9.1 -22.3°
Sets 04:14:04 0° 75° (ENE) 7,129 10.5 -21.3°
